Canadian, TX

1:43 AM CDT on October 23, 2017 (GMT -0500)
Hemphill County

Weather History for KHHF - January, 2014

Change the Weather History Date:

Thursday, January 30, 2014

  Actual Average (KPPA) Record (KPPA)
Temperature  
Mean Temperature 48 °F -  
Max Temperature 60 °F 48 °F 80 °F (2016)
Min Temperature 35 °F 23 °F 2 °F (1966)
Degree Days  
Heating Degree Days 18    
Moisture  
Dew Point 19 °F    
Average Humidity 35    
Maximum Humidity 55    
Minimum Humidity 23    
Precipitation  
Precipitation 0.00 in - - ()
Sea Level Pressure  
Sea Level Pressure 29.69 in    
Wind  
Wind Speed 13 mph (SE)    
Max Wind Speed 22 mph    
Max Gust Speed 34 mph    
Visibility 10 miles    
Events      
Averages and records for this station are not official NWS values.
T = Trace of Precipitation, MM = Missing Value Source: NWS Daily Summary

Daily Weather History Graph

Daily Weather History Graph

Search for Another Location

Airport or City:

Trip Planner

Search our weather history database for the weather conditions in past years. The results will help you decide how hot, cold, wet, or windy it might be!

Date:

Astronomy

Jan. 30, 2014 Rise Set
Actual Time 7:43 AM CST 6:06 PM CST
Civil Twilight 7:16 AM CST 6:33 PM CST
Nautical Twilight 6:45 AM CST 7:04 PM CST
Astronomical Twilight 6:15 AM CST 7:34 PM CST
Moon 7:12 AM CST (1/30) 6:18 PM CST (1/30)
Length of Visible Light 11h 17m
Length of Day
10h 23m
Waning Crescent, 0% of the Moon is Illuminated
Jan 30
Waning Crescent
Jan 30
New
Feb 6
First Quarter
Feb 14
Full
Feb 22
Last Quarter

Hourly Weather History & Observations

Time (CST) Temp. Windchill Dew Point Humidity Pressure Visibility Wind Dir Wind Speed Gust Speed Precip Events Conditions
12:15 AM 37.8 °F 28.3 °F 5.7 °F 26% 29.76 in 10.0 mi SSW 17.3 mph 25.3 mph N/A   Clear
12:35 AM 38.3 °F 29.7 °F 5.9 °F 26% 29.76 in 10.0 mi SSW 15.0 mph 21.9 mph N/A   Clear
12:55 AM 37.6 °F 28.1 °F 5.9 °F 27% 29.72 in 10.0 mi SSW 17.3 mph 24.2 mph N/A   Clear
1:15 AM 37.4 °F 27.2 °F 5.9 °F 27% 29.68 in 10.0 mi South 19.6 mph 28.8 mph N/A   Clear
1:35 AM 37.4 °F 26.6 °F 6.3 °F 27% 29.67 in 10.0 mi SSW 21.9 mph 28.8 mph N/A   Clear
1:55 AM 37.4 °F 26.9 °F 6.6 °F 28% 29.67 in 10.0 mi SSW 20.7 mph 34.5 mph N/A   Clear
2:15 AM 36.7 °F 27.2 °F 6.6 °F 29% 29.67 in 10.0 mi SSW 16.1 mph 26.5 mph N/A   Clear
2:35 AM 36.7 °F 27.2 °F 6.6 °F 29% 29.66 in 10.0 mi SSW 16.1 mph 24.2 mph N/A   Clear
2:55 AM 36.0 °F 25.3 °F 6.6 °F 29% 29.65 in 10.0 mi SSW 19.6 mph 25.3 mph N/A   Clear
3:15 AM 36.0 °F 27.5 °F 6.8 °F 30% 29.63 in 10.0 mi SW 12.7 mph 23.0 mph N/A   Clear
3:35 AM 36.7 °F 28.0 °F 7.2 °F 29% 29.63 in 10.0 mi SSW 13.8 mph 21.9 mph N/A   Clear
3:55 AM 36.1 °F 27.7 °F 7.2 °F 30% 29.62 in 10.0 mi SSW 12.7 mph 21.9 mph N/A   Clear
4:15 AM 36.7 °F 28.4 °F 7.3 °F 30% 29.61 in 10.0 mi SSW 12.7 mph 18.4 mph N/A   Clear
4:35 AM 36.0 °F 27.5 °F 7.5 °F 31% 29.60 in 10.0 mi SSW 12.7 mph 18.4 mph N/A   Clear
4:55 AM 36.3 °F 27.5 °F 7.7 °F 30% 29.59 in 10.0 mi SSW 13.8 mph 17.3 mph N/A   Clear
5:15 AM 36.0 °F 28.0 °F 7.7 °F 31% 29.59 in 10.0 mi SSW 11.5 mph - N/A   Clear
5:35 AM 36.5 °F 27.8 °F 7.9 °F 30% 29.58 in 10.0 mi SSW 13.8 mph 20.7 mph N/A   Clear
5:55 AM 37.4 °F 29.3 °F 7.9 °F 29% 29.58 in 10.0 mi SSW 12.7 mph 21.9 mph N/A   Clear
6:15 AM 37.4 °F 29.8 °F 8.1 °F 30% 29.59 in 10.0 mi SSW 11.5 mph 17.3 mph N/A   Clear
6:35 AM 37.4 °F 29.3 °F 8.2 °F 30% 29.59 in 10.0 mi SSW 12.7 mph - N/A   Clear
6:55 AM 37.4 °F 30.3 °F 8.2 °F 30% 29.59 in 10.0 mi South 10.4 mph - N/A   Clear
7:15 AM 36.9 °F 30.7 °F 8.2 °F 31% 29.59 in 10.0 mi South 8.1 mph - N/A   Clear
7:35 AM 35.6 °F 27.5 °F 8.4 °F 32% 29.59 in 10.0 mi SSW 11.5 mph - N/A   Clear
7:55 AM 35.2 °F 28.8 °F 8.4 °F 33% 29.60 in 10.0 mi SSW 8.1 mph - N/A   Clear
8:15 AM 35.8 °F 27.8 °F 8.6 °F 32% 29.59 in 10.0 mi SSW 11.5 mph - N/A   Clear
8:35 AM 37.2 °F 34.7 °F 9.1 °F 31% 29.62 in 10.0 mi SSW 3.5 mph - N/A   Clear
8:55 AM 38.3 °F - 9.5 °F 31% 29.64 in 10.0 mi Calm Calm - N/A   Clear
9:15 AM 40.1 °F - 10.0 °F 29% 29.65 in 10.0 mi Calm Calm - N/A   Clear
9:35 AM 42.1 °F 40.2 °F 10.2 °F 27% 29.67 in 10.0 mi West 3.5 mph - N/A   Clear
9:55 AM 44.6 °F 40.7 °F 10.4 °F 25% 29.68 in 10.0 mi WSW 6.9 mph - N/A   Clear
10:15 AM 44.4 °F 40.0 °F 10.6 °F 25% 29.69 in 10.0 mi WSW 8.1 mph - N/A   Clear
10:35 AM 46.0 °F 42.5 °F 11.3 °F 25% 29.69 in 10.0 mi WSW 6.9 mph - N/A   Clear
10:55 AM 48.7 °F - 12.6 °F 23% 29.69 in 10.0 mi WSW 3.5 mph - N/A   Clear
11:15 AM 52.3 °F - 15.3 °F 23% 29.70 in 10.0 mi NW 8.1 mph - N/A   Clear
11:35 AM 52.7 °F - 16.7 °F 24% 29.72 in 10.0 mi NW 8.1 mph - N/A   Clear
11:55 AM 55.6 °F - 21.2 °F 26% 29.71 in 10.0 mi North 6.9 mph - N/A   Clear
12:15 PM 59.9 °F - 27.0 °F 29% 29.72 in 10.0 mi NNE 17.3 mph 21.9 mph N/A   Clear
12:35 PM 59.9 °F - 27.5 °F 29% 29.72 in 10.0 mi NNE 15.0 mph 25.3 mph N/A   Clear
12:55 PM 59.9 °F - 28.4 °F 30% 29.71 in 10.0 mi NNE 13.8 mph 24.2 mph N/A   Clear
1:15 PM 60.1 °F - 28.8 °F 30% 29.71 in 10.0 mi North 17.3 mph 20.7 mph N/A   Clear
1:35 PM 59.9 °F - 28.9 °F 31% 29.70 in 10.0 mi NE 15.0 mph 20.7 mph N/A   Clear
1:55 PM 59.4 °F - 28.9 °F 31% 29.69 in 10.0 mi NNE 15.0 mph - N/A   Clear
2:15 PM 59.2 °F - 30.4 °F 34% 29.70 in 10.0 mi NNE 12.7 mph - N/A   Clear
2:35 PM 58.6 °F - 30.7 °F 35% 29.70 in 10.0 mi NNE 13.8 mph 18.4 mph N/A   Clear
2:55 PM 57.7 °F - 30.7 °F 36% 29.72 in 10.0 mi NE 10.4 mph - N/A   Clear
3:15 PM 58.5 °F - 31.1 °F 35% 29.72 in 10.0 mi NE 10.4 mph - N/A   Clear
3:35 PM 58.1 °F - 30.9 °F 36% 29.72 in 10.0 mi ENE 9.2 mph - N/A   Clear
3:55 PM 57.6 °F - 30.9 °F 36% 29.73 in 10.0 mi ENE 10.4 mph - N/A   Clear
4:15 PM 57.4 °F - 31.1 °F 37% 29.74 in 10.0 mi NE 10.4 mph - N/A   Clear
4:35 PM 57.2 °F - 31.3 °F 37% 29.73 in 10.0 mi NE 9.2 mph - N/A   Clear
4:55 PM 56.3 °F - 31.5 °F 39% 29.74 in 10.0 mi NE 9.2 mph - N/A   Clear
5:15 PM 55.0 °F - 31.1 °F 40% 29.75 in 10.0 mi NE 10.4 mph - N/A   Clear
5:35 PM 54.0 °F - 30.9 °F 41% 29.75 in 10.0 mi ENE 8.1 mph - N/A   Clear
5:55 PM 52.5 °F - 30.2 °F 42% 29.75 in 10.0 mi ENE 8.1 mph - N/A   Clear
6:15 PM 51.4 °F - 29.8 °F 44% 29.75 in 10.0 mi ENE 5.8 mph - N/A   Clear
6:35 PM 50.2 °F - 29.7 °F 45% 29.75 in 10.0 mi ENE 5.8 mph - N/A   Clear
6:55 PM 49.3 °F - 29.7 °F 47% 29.74 in 10.0 mi ENE 5.8 mph - N/A   Clear
7:15 PM 48.2 °F - 29.7 °F 49% 29.74 in 10.0 mi East 8.1 mph - N/A   Clear
7:35 PM 47.1 °F - 28.9 °F 49% 29.75 in 10.0 mi East 10.4 mph - N/A   Clear
7:55 PM 46.8 °F - 27.5 °F 47% 29.75 in 10.0 mi East 11.5 mph - N/A   Clear
8:15 PM 46.0 °F 41.0 °F 26.8 °F 47% 29.75 in 10.0 mi East 10.4 mph - N/A   Clear
8:35 PM 45.0 °F 40.6 °F 26.4 °F 48% 29.76 in 10.0 mi East 8.1 mph - N/A   Clear
8:55 PM 44.1 °F 39.0 °F 26.4 °F 50% 29.77 in 10.0 mi East 9.2 mph - N/A   Clear
9:15 PM 43.0 °F 39.5 °F 26.1 °F 51% 29.77 in 10.0 mi East 5.8 mph - N/A   Clear
9:35 PM 42.1 °F 38.4 °F 25.9 °F 53% 29.79 in 10.0 mi East 5.8 mph - N/A   Clear
9:55 PM 41.9 °F 37.5 °F 25.7 °F 53% 29.79 in 10.0 mi East 6.9 mph - N/A   Clear
10:15 PM 40.3 °F 35.5 °F 25.3 °F 55% 29.79 in 10.0 mi ESE 6.9 mph - N/A   Clear
10:35 PM 39.7 °F 35.6 °F 24.8 °F 55% 29.78 in 10.0 mi East 5.8 mph - N/A   Clear
10:55 PM 39.9 °F 35.8 °F 23.9 °F 53% 29.77 in 10.0 mi East 5.8 mph - N/A   Clear
11:15 PM 39.7 °F 35.6 °F 23.2 °F 52% 29.77 in 10.0 mi East 5.8 mph - N/A   Clear
11:35 PM 38.8 °F 34.6 °F 23.0 °F 53% 29.77 in 10.0 mi ENE 5.8 mph - N/A   Clear
11:55 PM 38.8 °F 33.8 °F 22.1 °F 51% 29.76 in 10.0 mi ENE 6.9 mph - N/A   Clear